Location: Newark
(48.2308°N, 120.8549°W)
Time: 14:37:24
(UTC+00:00)

Transit 2A Rocket - Pass Details

Date: 29 May 2020
Orbit: 584 x 919 km, 66.7° (Epoch: 07 July)

Event Time Altitude Azimuth Distance (km) Brightness Sun altitude
Rises 10:21:16 0° 294° (WNW) 3,277 8.2 -13.3°
Reaches altitude 10° 10:25:06 10° 322° (NW) 2,429 7.8 -13.0°
Maximum altitude 10:27:41 13° 350° (N) 2,259 8.1 -12.7°
Drops below altitude 10° 10:30:21 10° 17° (NNE) 2,521 8.9 -12.5°
Sets 10:34:30 0° 44° (NE) 3,516 10.4 -12.1°
